Wind_Speed
21 22 22 22 21 21 20 20 21 21 21 20 20 20 20 20 21 21 21 20 20 20 21 21 21 21 21 22 22 22 23 23 23 23 24 24 24 24 24 25 26 26 26
22 23 23 23 22 22 22 23 23 22 22 22 22 22 22 22 22 22 22 22 22 22 22 22 22 22 22 23 23 24 24 24 24 24 24 24 24 25 25 25 26 26 26
23 23 23 23 23 23 24 24 24 24 24 24 23 23 23 23 23 23 23 23 23 23 23 23 23 23 23 24 24 25 25 25 25 25 24 25 25 26 25 25 25 25 25
24 24 24 24 24 24 25 25 25 25 25 25 25 25 25 25 25 24 24 24 24 24 24 24 24 25 25 25 25 26 26 26 26 25 25 25 26 26 26 25 25 25 25
25 25 25 25 25 25 25 25 26 26 26 26 26 25 25 25 25 25 25 25 25 25 25 25 25 26 26 26 26 27 27 27 27 27 26 25 25 26 26 25 25 25 24
26 26 26 26 26 26 26 26 26 26 27 27 26 26 25 25 25 25 25 25 25 25 25 25 25 26 26 26 27 27 27 27 28 27 27 26 26 25 25 25 25 25 24
26 27 27 27 27 27 27 27 27 27 27 27 27 26 26 26 25 26 26 25 25 25 25 25 25 26 26 26 27 27 28 28 28 27 27 26 26 25 25 25 25 24 24
27 27 28 28 27 27 27 27 28 27 27 27 27 27 26 26 26 26 26 26 25 25 25 26 26 27 27 27 27 27 27 27 26 26 26 26 26 25 24 25 25 24 24
28 28 28 28 28 28 28 28 28 27 27 27 27 27 27 27 27 26 26 26 26 26 26 26 27 27 27 27 27 26 25 25 26 26 27 27 27 26 26 26 26 25 24
29 29 29 29 29 28 28 29 28 28 28 28 27 27 27 27 27 27 27 27 27 27 27 27 27 27 27 27 27 26 25 25 26 26 27 28 27 27 27 27 26 26 26
29 29 29 29 29 29 29 29 29 29 28 28 27 27 27 27 27 27 27 27 27 28 28 28 28 28 28 28 27 27 26 26 26 27 28 28 28 28 28 28 27 26 26
30 29 29 29 29 29 29 29 29 29 28 28 28 28 27 27 27 27 27 28 28 28 28 29 29 29 29 28 28 27 27 26 26 27 27 27 28 28 28 28 27 26 26
29 29 29 29 29 29 30 29 29 28 28 28 28 27 28 28 27 27 28 28 28 28 29 29 29 29 28 28 28 27 27 27 26 26 26 27 27 28 28 28 28 27 26
29 29 29 30 29 30 29 29 28 28 27 27 27 28 28 28 28 28 28 28 29 29 28 29 29 29 28 27 27 27 27 27 26 26 26 26 26 26 26 27 27 26 25
29 29 29 30 30 29 29 29 29 28 27 27 28 28 28 28 28 28 29 29 29 28 28 28 28 27 26 26 26 26 26 26 26 25 25 24 23 24 24 23 23 23 23
29 30 30 30 30 30 29 29 29 28 28 28 28 28 28 28 28 29 29 29 28 28 28 27 26 25 24 24 25 25 25 25 24 24 24 23 23 23 22 21 21 21 22
28 29 30 30 30 30 30 29 29 28 28 28 28 28 28 28 28 28 29 28 28 28 27 26 26 25 24 25 25 25 25 24 24 23 23 22 21 21 21 20 21 20 21
29 29 30 30 30 30 30 30 29 29 28 29 28 28 28 28 28 28 28 28 28 28 27 26 26 25 24 24 24 24 25 26 25 24 22 22 21 21 20 20 21 20 20
30 30 30 30 29 29 29 29 30 30 29 29 29 29 28 29 29 29 28 27 27 27 27 26 26 26 25 25 25 25 25 25 25 24 22 22 21 21 21 21 21 21 20
29 29 29 29 28 29 30 30 30 30 30 29 29 29 29 28 28 28 27 27 26 26 26 26 26 26 26 26 25 24 23 23 23 23 23 22 22 22 22 22 22 22 21
29 29 29 28 29 29 29 29 29 30 30 29 29 29 29 29 29 28 28 27 26 26 26 26 26 26 26 26 25 25 24 23 23 23 24 24 24 24 24 24 23 23 23
29 29 29 29 30 30 29 28 28 28 28 28 28 28 28 29 29 28 28 28 27 27 27 27 26 26 26 26 25 25 24 24 24 24 24 25 25 25 25 25 24 25 24
28 28 28 28 28 28 28 28 27 27 27 27 28 27 28 27 27 27 27 28 28 27 27 27 26 26 25 25 25 25 24 24 24 23 24 25 25 25 25 25 25 26 26
26 26 26 26 26 26 27 27 27 27 27 27 27 27 28 27 27 27 26 26 26 27 27 27 26 26 26 26 25 25 25 24 24 23 24 24 24 24 25 25 26 26 26
26 26 26 26 26 26 26 26 27 28 27 26 26 26 27 27 28 27 27 27 27 26 26 26 26 26 26 26 26 25 25 25 25 24 24 24 24 24 25 26 26 27 28
25 25 25 25 26 26 26 26 26 26 26 26 26 25 25 26 26 26 26 26 25 26 26 26 26 26 26 26 25 25 25 25 26 25 25 25 25 25 26 26 26 27 28
Wind_Direction
280 280 278 277 276 276 276 279 280 279 279 279 279 279 278 279 279 279 278 279 281 282 284 284 283 283 282 282 283 283 283 282 281 280 280 280 280 279 278 276 276 275 275
280 278 277 277 276 276 276 276 277 278 276 277 281 277 277 277 279 279 277 278 279 281 283 283 283 282 282 282 282 283 284 284 282 280 280 279 279 280 279 278 277 276 275
279 279 277 276 276 277 276 276 276 276 275 276 278 278 277 276 276 277 278 278 279 281 282 282 282 281 281 282 282 282 283 284 283 281 279 278 277 279 279 278 277 276 275
278 279 278 277 278 278 277 276 276 276 275 276 276 277 276 276 276 277 278 278 279 280 281 281 282 281 281 281 281 282 282 282 282 281 279 278 277 278 277 277 277 275 274
278 279 278 279 278 278 278 276 277 277 277 277 277 277 276 275 276 277 279 279 279 280 281 280 280 280 281 281 281 281 281 282 281 280 278 279 278 278 276 276 275 273 273
279 278 278 279 279 278 277 277 276 275 275 277 277 276 275 275 276 277 278 279 278 280 280 280 280 281 281 282 282 282 282 281 281 280 278 278 278 278 277 276 274 273 273
279 279 278 279 279 279 278 277 277 276 275 276 276 275 274 275 275 276 277 278 278 278 279 280 279 280 282 283 284 283 282 281 281 279 278 276 276 276 276 275 274 274 272
278 279 279 278 278 278 278 278 279 277 276 276 276 275 274 274 274 275 275 276 277 277 279 279 280 281 282 284 285 284 283 281 279 278 277 276 276 275 274 273 273 273 272
278 278 278 277 277 277 278 279 279 277 276 277 276 274 274 273 273 274 275 275 276 277 278 279 280 281 283 284 285 283 281 280 279 278 277 276 275 275 276 274 271 272 271
279 279 278 277 276 277 277 278 278 278 277 277 276 274 273 272 273 273 274 274 275 276 277 278 281 283 284 285 284 282 280 280 280 279 277 274 274 275 274 273 271 271 270
280 278 278 276 275 275 276 276 277 276 275 276 275 274 272 272 272 273 273 273 274 276 277 279 281 283 284 283 282 282 280 281 282 281 279 277 275 275 273 271 270 270 269
278 278 278 276 275 276 276 276 276 276 274 274 275 273 271 271 271 272 273 273 274 276 278 279 281 283 283 281 280 281 281 282 283 282 281 279 277 274 273 270 270 268 268
277 277 277 276 275 276 276 276 276 275 274 273 274 274 273 272 271 271 272 274 275 276 278 279 280 282 281 281 280 280 282 284 285 283 282 280 278 276 274 271 267 265 265
276 277 276 276 275 275 275 275 276 276 273 272 272 273 273 272 272 272 273 275 277 278 279 279 280 280 280 280 280 280 282 284 285 284 283 282 280 278 275 272 268 264 262
275 276 277 275 275 275 275 275 276 276 275 274 273 273 273 272 271 271 272 274 277 278 279 279 280 280 278 278 279 280 283 285 285 285 284 283 280 278 276 271 266 263 260
275 276 277 276 274 273 273 274 275 276 277 276 274 274 273 272 271 270 270 272 274 275 276 276 278 278 278 278 279 281 283 284 284 285 284 282 280 277 274 268 265 263 260
276 277 277 276 274 272 272 272 273 274 275 276 276 275 273 272 272 272 271 271 272 273 273 273 274 276 278 278 279 281 283 284 286 285 285 282 280 278 274 268 264 260 259
279 279 278 276 274 272 272 272 272 273 273 273 274 274 272 272 273 273 272 271 271 271 271 272 272 274 276 279 280 282 283 282 283 283 282 279 277 275 272 267 263 261 263
279 280 279 277 275 274 272 272 273 273 272 272 272 272 271 271 272 272 273 272 270 270 271 270 270 271 275 278 281 283 285 284 283 282 280 279 276 273 270 267 265 264 265
279 281 279 277 276 275 274 273 273 273 273 272 272 271 270 270 271 271 271 271 270 271 271 270 270 272 274 276 280 281 284 284 284 283 281 279 277 273 269 266 266 264 264
279 280 279 277 276 276 275 274 273 272 272 272 271 269 269 269 269 270 270 270 270 271 271 270 270 271 272 274 277 278 280 281 282 281 280 280 278 274 271 269 267 265 265
279 278 277 277 276 275 274 274 273 271 271 271 270 269 269 269 269 269 269 269 268 268 269 269 267 268 269 271 275 276 277 280 281 281 281 280 278 275 273 270 267 266 266
281 279 278 277 276 275 274 273 273 272 270 271 270 269 268 268 270 271 269 268 267 267 268 269 269 268 269 270 272 274 276 279 280 281 282 281 279 275 272 269 267 266 266
283 280 279 278 277 276 275 274 271 271 270 269 269 268 267 266 266 267 267 268 268 267 268 268 268 268 269 271 272 274 276 277 278 279 282 283 281 276 273 270 267 266 266
285 283 281 279 279 277 276 276 273 270 271 271 270 269 267 266 266 265 265 266 266 266 267 268 269 269 269 270 272 272 274 275 276 277 280 282 281 278 275 271 269 267 267
287 285 283 281 280 279 278 277 276 274 273 273 272 270 269 268 266 265 266 266 265 264 265 267 269 270 269 269 269 270 272 274 275 276 278 279 279 278 276 274 271 269 269
Height
5785 5783 5783 5782 5781 5780 5780 5779 5777 5776 5775 5774 5774 5773 5772 5772 5771 5770 5770 5769 5768 5767 5766 5765 5764 5763 5762 5760 5759 5758 5757 5756 5755 5754 5752 5751 5750 5748 5747 5747 5746 5745 5745
5778 5777 5776 5775 5775 5774 5773 5772 5771 5770 5769 5769 5768 5767 5766 5765 5764 5764 5763 5762 5761 5760 5759 5758 5757 5756 5755 5753 5752 5751 5750 5748 5747 5746 5745 5743 5742 5741 5740 5739 5738 5737 5736
5772 5771 5770 5769 5768 5767 5766 5765 5764 5763 5762 5762 5761 5760 5759 5758 5757 5757 5756 5755 5754 5753 5752 5751 5750 5748 5747 5746 5745 5743 5742 5741 5739 5738 5737 5735 5734 5733 5732 5731 5730 5729 5728
5765 5764 5763 5762 5761 5760 5759 5758 5757 5756 5755 5754 5753 5752 5751 5750 5749 5749 5748 5747 5746 5745 5744 5743 5742 5741 5739 5738 5737 5735 5734 5733 5731 5730 5729 5728 5726 5725 5724 5723 5722 5721 5720
5758 5757 5756 5755 5753 5752 5751 5750 5749 5748 5747 5746 5745 5744 5743 5742 5742 5741 5740 5739 5738 5737 5736 5735 5734 5732 5731 5729 5728 5727 5725 5724 5723 5721 5720 5719 5718 5716 5716 5715 5714 5713 5713
5750 5749 5748 5747 5746 5745 5744 5742 5741 5740 5740 5739 5737 5737 5736 5735 5734 5733 5732 5731 5730 5729 5728 5727 5725 5724 5723 5721 5719 5718 5716 5715 5714 5712 5711 5710 5709 5708 5707 5706 5706 5705 5705
5742 5741 5740 5739 5738 5737 5736 5734 5733 5732 5731 5731 5730 5729 5728 5727 5726 5725 5724 5723 5722 5721 5720 5719 5717 5716 5714 5712 5711 5709 5707 5705 5704 5703 5702 5701 5700 5700 5699 5699 5698 5697 5697
5734 5733 5732 5731 5730 5729 5728 5726 5725 5724 5723 5722 5721 5720 5720 5719 5718 5717 5716 5715 5714 5713 5712 5711 5709 5708 5706 5704 5702 5700 5698 5697 5695 5694 5693 5693 5692 5691 5691 5691 5690 5690 5689
5726 5725 5724 5723 5722 5721 5720 5718 5717 5716 5715 5714 5713 5712 5711 5711 5710 5709 5708 5707 5706 5705 5704 5703 5701 5699 5698 5696 5694 5692 5690 5688 5687 5685 5684 5683 5683 5682 5682 5682 5681 5681 5681
5718 5716 5715 5714 5713 5712 5711 5710 5709 5708 5707 5706 5705 5704 5703 5702 5702 5701 5700 5699 5698 5697 5696 5695 5693 5691 5689 5687 5685 5683 5682 5680 5679 5677 5675 5674 5673 5673 5672 5672 5672 5672 5672
5709 5707 5706 5705 5704 5703 5703 5701 5700 5699 5698 5697 5696 5695 5695 5694 5693 5692 5691 5691 5690 5689 5688 5686 5684 5682 5680 5678 5677 5675 5673 5672 5670 5668 5666 5665 5664 5663 5662 5662 5662 5663 5663
5700 5698 5697 5696 5695 5695 5694 5693 5691 5690 5689 5688 5688 5687 5686 5686 5685 5684 5683 5682 5681 5680 5679 5678 5676 5674 5672 5670 5668 5666 5664 5663 5661 5659 5657 5655 5654 5653 5653 5652 5652 5653 5654
5691 5689 5689 5687 5686 5685 5685 5684 5683 5682 5681 5680 5679 5678 5678 5677 5676 5675 5675 5673 5672 5671 5670 5669 5667 5665 5663 5661 5660 5658 5655 5653 5651 5649 5647 5646 5645 5643 5643 5642 5642 5643 5644
5681 5681 5680 5679 5678 5676 5675 5675 5674 5673 5672 5671 5670 5670 5669 5669 5668 5667 5666 5665 5664 5662 5661 5660 5658 5656 5655 5653 5651 5649 5647 5645 5643 5641 5638 5637 5635 5634 5633 5633 5633 5634 5635
5672 5671 5670 5669 5669 5668 5667 5666 5665 5664 5663 5662 5662 5661 5660 5660 5660 5659 5658 5657 5656 5654 5653 5651 5650 5648 5647 5645 5643 5641 5639 5637 5635 5632 5630 5628 5626 5625 5624 5624 5624 5625 5627
5663 5662 5661 5660 5659 5658 5658 5657 5656 5655 5654 5654 5653 5652 5652 5651 5651 5650 5649 5648 5647 5646 5645 5643 5642 5641 5639 5638 5636 5634 5632 5630 5627 5625 5623 5621 5619 5618 5617 5617 5617 5618 5619
5653 5652 5651 5650 5649 5649 5648 5648 5647 5647 5645 5645 5644 5643 5642 5642 5642 5641 5640 5639 5638 5637 5636 5635 5634 5633 5632 5630 5628 5626 5624 5622 5619 5617 5615 5614 5612 5611 5611 5610 5611 5611 5612
5644 5642 5641 5640 5639 5639 5638 5638 5638 5637 5637 5635 5635 5634 5633 5633 5632 5632 5631 5630 5629 5629 5628 5627 5626 5625 5624 5623 5621 5619 5616 5614 5612 5610 5608 5607 5606 5605 5605 5604 5605 5605 5606
5634 5633 5631 5630 5629 5629 5628 5628 5628 5627 5627 5626 5626 5625 5624 5624 5623 5623 5622 5621 5621 5620 5620 5619 5618 5617 5616 5615 5613 5611 5609 5607 5605 5603 5602 5601 5600 5599 5599 5598 5599 5599 5600
5624 5623 5622 5621 5620 5619 5619 5618 5617 5617 5617 5616 5616 5616 5615 5615 5614 5614 5613 5613 5612 5612 5611 5610 5610 5609 5608 5607 5605 5604 5602 5600 5598 5597 5595 5594 5593 5593 5592 5592 5592 5593 5593
5615 5614 5612 5611 5611 5610 5609 5608 5608 5607 5607 5606 5606 5606 5606 5606 5605 5605 5605 5604 5604 5604 5603 5602 5601 5600 5600 5598 5597 5596 5595 5593 5592 5590 5589 5588 5587 5586 5586 5585 5585 5586 5586
5605 5604 5603 5602 5601 5600 5599 5599 5598 5597 5597 5597 5597 5597 5597 5596 5596 5596 5596 5595 5595 5595 5594 5594 5593 5592 5591 5591 5589 5588 5587 5586 5585 5583 5582 5580 5579 5579 5578 5578 5578 5579 5579
5596 5594 5593 5592 5591 5591 5590 5589 5589 5588 5588 5588 5588 5588 5588 5587 5587 5587 5587 5586 5586 5586 5585 5585 5584 5584 5583 5582 5581 5581 5580 5578 5577 5576 5575 5573 5572 5571 5571 5571 5571 5571 5571
5587 5586 5585 5584 5583 5582 5581 5580 5580 5579 5579 5579 5579 5579 5578 5578 5578 5578 5577 5577 5577 5577 5576 5576 5575 5575 5574 5574 5573 5573 5572 5571 5570 5568 5567 5566 5565 5564 5564 5563 5563 5563 5563
5579 5577 5576 5575 5574 5573 5572 5571 5571 5570 5570 5569 5569 5569 5568 5569 5568 5568 5568 5568 5568 5568 5567 5567 5567 5566 5566 5565 5565 5564 5564 5563 5562 5561 5560 5559 5558 5557 5556 5556 5555 5555 5555
5570 5569 5567 5566 5565 5565 5564 5563 5562 5561 5561 5560 5560 5560 5560 5559 5559 5559 5559 5559 5559 5559 5559 5558 5558 5558 5557 5557 5557 5556 5556 5555 5554 5553 5552 5551 5550 5549 5548 5548 5547 5547 5546